Tracking 19170 objects as of 22-May-2018
HD Live streaming from Space Station
objects crossing your sky now

SL-24 R/B

Track SL-24 R/B now!
10-day predictions


NORAD ID: 35688
Int'l Code: 2009-041H
Perigee: 674.1 km
Apogee: 1,309.1 km
Inclination: 98.1 °
Period: 104.8 minutes
Semi major axis: 7362 km
RCS: 6.1417 m2 (large)
Launch date: July 29, 2009
Source: Commonwealth of Independent States (former USSR) (CIS)
Launch site: TYURATAM MISSILE AND SPACE COMPLEX (TTMTR)

Note: This is a ROCKET BODY
aabbcc
Your satellite tracking list
Your tracking list is empty




NASA's NSSDC Master Catalog

Two Line Element Set (TLE):
1 35688U 09041H   18141.56055534 -.00000028 +00000-0 +22493-5 0  9998
2 35688 098.0817 328.7061 0431278 070.6953 355.8758 13.74217154441833
Source of the keplerian elements: AFSPC